Skip Page Navigation
NASA JPL Caltech
NASA Logo - Jet Propulsion Laboratory + View the NASA Portal
+ Center for Near-Earth Object Studies
JPL Home Earth Solar System Stars & Galaxies Technology
JPL Solar System Dynamics
BODIES ORBITS EPHEMERIDES TOOLS PHYSICAL DATA DISCOVERY FAQ SITE MAP
JPL Small-Body Database Browser
Search: [ help ]  
452858 (2006 SX213)
Classification: Main-belt Asteroid          SPK-ID: 2452858
Ephemeris | Orbit Diagram | Orbital Elements | Mission Design | Physical Parameters | Discovery Circumstances ]

[ show orbit diagram ]
Orbital Elements at Epoch 2459000.5 (2020-May-31.0) TDB
Reference: JPL 12 (heliocentric ecliptic J2000)
 Element Value Uncertainty (1-sigma)   Units 
e .1941667361355079 5.658e-08  
a 2.603446654367965 2.4282e-08 au
q 2.09794391478643 1.5186e-07 au
i 10.93972547581609 1.0718e-05 deg
node 227.0346532869962 2.6554e-05 deg
peri 77.73322534482655 3.947e-05 deg
M 130.637396084513 2.7724e-05 deg
tp 2458443.716359542802
(2018-Nov-21.21635954)
0.00011624 TDB
period 1534.339450817894
4.20
2.1466e-05
5.877e-08
d
yr
n .2346286539188565 3.2826e-09 deg/d
Q 3.108949393949501 2.8997e-08 au
  Orbit Determination Parameters
   # obs. used (total)      159  
   data-arc span      7683 days (21.03 yr)  
   first obs. used      1998-11-15  
   last obs. used      2019-11-28  
   planetary ephem.      DE431  
   SB-pert. ephem.      SB431-N16  
   condition code      0  
   norm. resid. RMS      .57381  
   source      ORB  
   producer      Otto Matic  
   solution date      2019-Dec-14 23:10:58  

Additional Information
 Earth MOID = 1.11567 au 
 Jupiter MOID = 2.20819 au 
 T_jup = 3.361 
[ show covariance matrix ]

Ephemeris | Orbit Diagram | Orbital Elements | Mission Design | Physical Parameters | Discovery Circumstances ]

Physical Parameter Table
Parameter Symbol Value Units Sigma Reference Notes
absolute magnitude H 16.6   n/a MPO450474  

452858 (2006 SX213)          Discovered 2006-Sep-27 by CSS at Catalina
Reference: Last Updated: 2016-01-04

Alternate Designations
 2006 SX213 = 2001 KG60 
Ephemeris | Orbit Diagram | Orbital Elements | Mission Design | Physical Parameters | Discovery Circumstances ]
ABOUT SSD CREDITS/AWARDS PRIVACY/COPYRIGHT GLOSSARY LINKS
FirstGov 2020-Jul-12 19:06 UT
(server date/time)  
NASA Home Page
Site Manager:   Ryan S. Park
Webmaster  Alan B. Chamberlin